Weather in Blarney

Ireland     51°56′14″N   8°33′39″W
temp.,
°C
wind,
m/s
gust,
m/s
humid.,
%
clouds,
%
prec.,
mm/h
press.,
hPa
HPBL,
m
23 september, thu
thu2301:00+13sw259699 0.0 1023141
04:00+15wsw2795100 0.0 1022381
07:00+13nw279665 0.2 1022243
10:00+15nw378648 0.0 1022613
13:00+18nw4663100 0.0 1022834
16:00+18nw355715 0.0 1021857
19:00+14nw257998 0.0 1021113
22:00+10nw11955 0.0 102114
24 september, fri
fri2401:00+10w229225 0.0 102020
04:00+13sw1280100 0.0 101857
07:00+14wsw1188100 0.0 101730
10:00+17wnw2787100 0.0 1017401
13:00+21nw477166 0.0 1016925
16:00+19nw467779 0.0 1016803
19:00+17nnw2587100 0.0 1016237
22:00+16nnw1192100 0.0 101634
25 september, sat
sat2501:00+15nnw1194100 0.0 101513
04:00+15ssw1196100 0.0 101414
07:00+14sse119899 0.0 101321
10:00+17ssw138886 0.0 1012297
13:00+19ssw357241 0.0 1011741
16:00+19ssw467447 0.0 1010915
19:00+16ssw388835 0.1 1010450
22:00+13s3109954 0.0 1009371
26 september, sun
sun2601:00+14s4109684 0.0 1008523
04:00+15s4119583 0.0 1006675
07:00+15s61393100 0.1 1004866
10:00+16s71587100 0.3 10021228
13:00+14s81796100 3.2 10001203
16:00+10nw3793100 3.1 1002335
19:00+11w39865 3.3 1004520
22:00+7sw311895 0.0 1006288
27 september, mon
mon2701:00+7sw3129049 0.0 1007375
04:00+8sw4128618 0.0 1008531
07:00+8wsw312868 0.1 1010445
10:00+11wsw411755 0.0 10131216
13:00+13wsw7126548 0.5 10141559
16:00+13wsw6116894 0.6 10151429
19:00+11sw4117587 0.8 1016644
22:00+10ssw31089100 0.2 1017513